Location: Bennemühlen
(52.5740°N, 9.7135°E)
Time: 21:42:49
(UTC+00:00)

BREEZE-M R/B - Pass Details

Date: 19 May 2025
Orbit: 537 x 26537 km, 49.0° (Epoch: 12 June)

Event Time Altitude Azimuth Distance (km) Brightness Sun altitude
Rises 19:26:08 0° 264° (W) 16,653 10.6 -1.9°
Reaches altitude 10° 19:47:08 10° 267° (W) 10,752 9.6 -4.3°
Maximum altitude 20:12:06 72° 190° (S) 1,627 4.6 -7.1°
Drops below altitude 10° 20:17:08 10° 105° (ESE) 2,478 5.1 -7.6°
Enters shadow 20:17:58 - 104° (ESE) 2,833 5.4 -7.7°
